This demonstration page uses our WeatherBlox Daily Observations layout. Learn more.

Left ArrowRight Arrow

Hourly Observations for March 17, 2020

Temp ( °F °C ) Dew Point ( °F °C ) Humidity (%) Winds ( mph kmh ) Pressure ( in mb ) Visibility ( mi km ) Precip ( " mm )
12:15 am 00:15 Cloudy 41 5.2 39 4 92 92 N N/A 30.21 1023 10 16 N/A
12:30 am 00:30 Cloudy 41 5.1 39 4 93 93 W 5 7 30.20 1023 10 16 N/A
1:20 am 01:20 Cloudy N/A N/A N/A W 5 7 N/A 7 11 N/A
1:40 am 01:40 Cloudy 41 5 40 4.2 95 95 W 7 11 30.18 1022 7 11 N/A
1:55 am 01:55 Cloudy 41 5 40 4.2 95 95 WSW 6 9 30.18 1022 7 11 N/A
2:15 am 02:15 Cloudy 41 5 40 4.2 95 95 W 3 6 30.18 1022 7 11 N/A
2:35 am 02:35 Cloudy 41 5 39 4.1 94 94 N N/A 30.18 1022 7 11 N/A
2:55 am 02:55 Cloudy 41 5 39 4.1 94 94 W 5 7 30.19 1022 7 11 N/A
3:15 am 03:15 Cloudy 41 4.9 39 4 94 94 W 8 13 30.18 1022 4 6 N/A
3:35 am 03:35 Cloudy 40 4.6 39 4 96 96 W 8 13 30.19 1022 5 8 N/A
3:55 am 03:55 Cloudy 40 4.5 39 4 97 97 W 6 9 30.19 1022 4 6 N/A
4:15 am 04:15 Cloudy 40 4.5 39 4 97 97 W 8 13 30.19 1022 4 6 N/A
4:35 am 04:35 Cloudy 40 4.5 39 4 97 97 W 8 13 30.19 1022 3 5 N/A
4:55 am 04:55 Cloudy 40 4.4 39 4 97 97 WNW 7 11 30.19 1022 4 6 N/A
5:15 am 05:15 Cloudy 40 4.5 39 3.9 96 96 WNW 7 11 30.18 1022 7 11 N/A
5:35 am 05:35 Cloudy 40 4.5 38 3.4 93 93 WNW 9 15 30.19 1022 10 16 N/A
5:55 am 05:55 Cloudy 39 4.1 38 3.4 95 95 WNW 9 15 30.20 1023 7 11 N/A
6:15 am 06:15 Cloudy 39 4 37 3 93 93 NW 9 15 30.22 1023 10 16 N/A
6:35 am 06:35 Cloudy 38 3.6 37 2.7 94 94 NW 13 20 30.22 1023 7 11 N/A
6:55 am 06:55 Cloudy 38 3.5 36 2.1 91 91 NNW 9 15 30.23 1024 10 16 N/A
7:15 am 07:15 Cloudy 38 3.4 34 1.2 86 86 NW 8 13 30.24 1024 10 16 N/A
7:35 am 07:35 Cloudy 38 3.2 33 0.7 84 84 NW 9 15 30.25 1024 10 16 N/A
7:55 am 07:55 Partly Cloudy 37 3 33 0.5 84 84 N N/A 30.25 1024 10 16 N/A
8:15 am 08:15 Sunny 37 2.7 33 0.5 86 86 N N/A 30.26 1025 10 16 N/A
8:35 am 08:35 Partly Cloudy 37 3 33 0.7 85 85 N N/A 30.27 1025 10 16 N/A
8:55 am 08:55 Partly Cloudy 38 3.4 34 1 84 84 NW 6 9 30.28 1025 10 16 N/A
9:15 am 09:15 Sunny 39 4 34 1.3 83 83 WNW 3 6 30.28 1025 10 16 N/A
9:35 am 09:35 Partly Cloudy 40 4.5 35 1.6 82 82 NW 7 11 30.28 1025 10 16 N/A
9:55 am 09:55 Partly Cloudy 41 4.8 34 1.3 78 78 NW 7 11 30.28 1025 10 16 N/A
10:15 am 10:15 Sunny 41 5.1 34 1.2 76 76 N 8 13 30.29 1026 10 16 N/A
10:35 am 10:35 Sunny 42 5.8 35 1.5 74 74 NW 10 17 30.29 1026 10 16 N/A
11:35 am 11:35 Cloudy 42 5.6 35 1.5 75 75 NNW 10 17 30.32 1027 10 16 N/A
11:55 am 11:55 Cloudy 43 6.1 35 1.6 73 73 NNW 9 15 30.32 1027 10 16 N/A
12:15 pm 12:15 Cloudy 45 7 36 2.2 72 72 NW 8 13 30.32 1027 10 16 N/A
12:35 pm 12:35 Cloudy 45 7.2 35 1.9 69 69 NW 3 6 30.31 1026 10 16 N/A
12:55 pm 12:55 Cloudy 46 7.8 36 2.3 68 68 NW 6 9 30.31 1026 10 16 N/A
1:15 pm 13:15 Cloudy 46 8 35 1.8 65 65 W 5 7 30.32 1027 10 16 N/A
1:35 pm 13:35 Cloudy 48 8.7 37 2.5 65 65 W 6 9 30.31 1027 10 16 N/A
1:55 pm 13:55 Mostly Cloudy 47 8.3 35 1.9 64 64 N 7 11 30.32 1027 10 16 N/A
2:15 pm 14:15 Mostly Cloudy 49 9.3 36 2.3 62 62 NW 9 15 30.30 1026 10 16 N/A
2:35 pm 14:35 Mostly Cloudy 49 9.3 35 1.9 60 60 NNW 7 11 30.30 1026 10 16 N/A
2:55 pm 14:55 Mostly Cloudy 49 9.6 35 1.7 58 58 NNW 7 11 30.29 1026 10 16 N/A
3:15 pm 15:15 Partly Cloudy 49 9.6 36 2 59 59 N 8 13 30.29 1026 10 16 N/A
3:35 pm 15:35 Mostly Cloudy 50 9.9 36 2.1 59 59 N 6 9 30.29 1026 10 16 N/A
3:55 pm 15:55 Mostly Cloudy 50 9.8 35 1.9 58 58 N N/A 30.29 1026 10 16 N/A
4:15 pm 16:15 Partly Cloudy 50 10 35 1.4 55 55 N N/A 30.29 1026 10 16 N/A
4:35 pm 16:35 Partly Cloudy 50 10 35 1.5 56 56 N 5 7 30.28 1025 10 16 N/A
4:55 pm 16:55 Sunny 51 10.5 35 1.4 54 54 N 7 11 30.28 1025 10 16 N/A
5:15 pm 17:15 Sunny 51 10.4 34 1.2 53 53 WNW 7 11 30.29 1026 10 16 N/A
5:35 pm 17:35 Sunny 51 10.8 35 1.4 53 53 N N/A 30.29 1026 10 16 N/A
5:55 pm 17:55 Sunny 51 10.6 34 1.3 53 53 NNW 5 7 30.29 1026 10 16 N/A
6:15 pm 18:15 Sunny 51 10.7 34 0.9 51 51 N N/A 30.29 1026 10 16 N/A
6:35 pm 18:35 Sunny 51 10.5 33 0.8 51 51 N N/A 30.28 1025 10 16 N/A
6:55 pm 18:55 Sunny 51 10.3 33 0.8 52 52 N N/A 30.28 1025 10 16 N/A
7:15 pm 19:15 Sunny 50 10.1 33 0.8 53 53 N N/A 30.28 1025 10 16 N/A
7:35 pm 19:35 Sunny 50 9.9 33 0.7 53 53 N N/A 30.29 1026 10 16 N/A
7:55 pm 19:55 Clear 48 9.1 33 0.6 56 56 N N/A 30.29 1026 10 16 N/A

Powered by AerisWeather